Location: Athis
(48.7052°N, 2.3915°E)
Time: 23:53:04
(UTC+00:00)

Daily predictions for brighter satellites

Satellite Brightness Start Highest point End
(mag) Time Altitude Azimuth Time Altitude Azimuth Time Altitude Azimuth
CORIOLIS 4.2 16:52:50 10° SSE 16:58:06 60° ENE 17:03:23 10° N
COBE Rocket 4.1 16:56:20 10° NNE 17:01:29 82° ESE 17:06:40 10° S
Cosmos 1980 4.3 16:56:18 10° NNW 17:01:29 34° NE 17:06:38 10° ESE
COSMO-SKYMED 1 4.0 16:58:28 10° NE 17:01:36 19° E 17:04:42 10° SE
Cosmos 2297 Rocket 3.9 17:00:33 10° ESE 17:03:00 13° E 17:05:27 10° ENE
Starlink AQ 3.4 17:00:34 10° SW 17:03:24 44° SSE 17:06:15 10° ENE
Cosmos 2360 Rocket 3.6 17:00:07 10° NW 17:05:27 44° WSW 17:10:44 10° S
Starlink AS 3.3 17:02:43 10° SW 17:05:32 46° SSE 17:08:23 10° ENE
Starlink BA 3.3 17:03:01 10° SW 17:05:50 46° SSE 17:08:40 10° ENE
Nadezhda 3 Rocket 4.3 16:59:56 10° N 17:05:58 46° ENE 17:12:01 10° SSE
Starlink AU 3.3 17:03:14 10° SW 17:06:02 46° SSE 17:08:52 10° ENE
Cosmos 1726 Rocket 4.5 17:01:49 10° NNW 17:06:06 54° W 17:10:18 10° S
Starlink AT 3.3 17:03:26 10° SW 17:06:15 46° SSE 17:09:05 10° ENE
Starlink BB 3.3 17:03:39 10° SW 17:06:29 46° SSE 17:09:19 10° ENE
Starlink BC 3.3 17:03:50 10° SW 17:06:39 47° SSE 17:09:30 10° ENE
Starlink BK 3.3 17:04:08 10° SW 17:06:58 47° SSE 17:09:48 10° ENE
Starlink AY 3.2 17:04:19 10° SW 17:07:09 47° SSE 17:09:59 10° ENE
Starlink AW 3.2 17:04:33 10° SW 17:07:23 47° SSE 17:10:13 10° ENE
Starlink BJ 3.2 17:04:47 10° SW 17:07:37 48° SSE 17:10:28 10° ENE
Starlink AV 3.2 17:04:58 10° SW 17:07:49 48° SSE 17:10:39 10° ENE
H-2A R/B 2.7 17:04:13 10° SSE 17:08:02 83° ENE 17:11:57 10° NNW
Starlink BD 3.2 17:05:13 10° SW 17:08:03 48° SSE 17:10:53 10° ENE
Starlink BE 3.2 17:05:26 10° SW 17:08:17 48° SSE 17:11:10 10° ENE
Starlink BM 3.2 17:05:40 10° SW 17:08:30 48° SSE 17:11:22 10° ENE
Starlink AX 3.2 17:05:53 10° SW 17:08:43 49° SSE 17:11:34 10° ENE
Starlink BH 3.2 17:06:07 10° SW 17:08:57 49° SSE 17:11:48 10° ENE
Cosmos 1125 Rocket 4.2 17:04:25 10° SSE 17:09:03 34° ESE 17:13:43 10° NE
Starlink AZ 3.2 17:06:20 10° SW 17:09:10 49° SSE 17:12:02 10° ENE
Starlink BG 3.2 17:06:34 10° SW 17:09:24 49° SSE 17:12:15 10° ENE
Starlink BF 3.2 17:06:47 10° SW 17:09:37 49° SSE 17:12:29 10° ENE
Starlink BL 3.2 17:06:59 10° SW 17:09:51 50° SSE 17:12:44 10° ENE
Starlink AH 3.2 17:07:15 10° SW 17:10:06 50° SSE 17:12:55 10° ENE
Starlink AC 3.1 17:07:28 10° SW 17:10:19 50° SSE 17:13:08 10° ENE
Starlink X 3.1 17:07:42 10° SW 17:10:32 50° SSE 17:13:22 10° ENE
Starlink AE 3.2 17:07:52 10° SW 17:10:44 51° SSE 17:13:36 10° ENE
Starlink Z 3.1 17:08:08 10° SW 17:10:59 51° SSE 17:13:47 10° ENE
Starlink AK 3.1 17:08:21 10° SW 17:11:12 51° SSE 17:14:00 10° ENE
Starlink AL 3.1 17:08:36 10° SW 17:11:27 51° SSE 17:14:14 11° ENE
Starlink AD 3.1 17:08:50 10° SW 17:11:41 51° SSE 17:14:28 11° ENE
Okean-O 2.9 17:07:28 10° SE 17:11:41 46° ENE 17:15:57 10° N
Starlink Y 3.1 17:09:15 10° SW 17:12:06 52° SSE 17:14:52 11° ENE
Starlink AG 3.1 17:09:29 10° SW 17:12:20 52° SSE 17:15:06 11° ENE
Starlink W 3.1 17:09:40 10° SW 17:12:33 53° SSE 17:15:20 11° ENE
Starlink AJ 3.1 17:09:54 10° SW 17:12:45 53° SSE 17:15:30 11° ENE
Starlink AM 3.1 17:10:23 10° SW 17:13:14 53° SSE 17:15:58 11° ENE
Cosmos 2219 Rocket 2.2 17:07:31 10° NNW 17:13:15 83° ENE 17:18:55 10° SSE
Starlink AP 3.1 17:10:35 10° SW 17:13:27 53° SSE 17:16:10 11° ENE
NOSS 0 Rocket 4.1 17:07:27 10° NNW 17:13:37 56° NE 17:19:41 10° SE
Starlink AA 3.1 17:10:50 10° SW 17:13:41 54° SSE 17:16:24 11° ENE
Starlink AF 3.1 17:11:02 10° SW 17:13:54 54° SSE 17:16:36 11° ENE
Starlink AB 3.0 17:11:16 10° SW 17:14:08 54° SSE 17:16:49 11° ENE
Okean O Rocket 3.4 17:10:10 10° SSW 17:14:17 37° W 17:18:27 10° NNW
Starlink AN 3.0 17:11:28 10° SW 17:14:20 54° SSE 17:17:01 11° ENE
Cosmos 2227 Rocket 3.8 17:11:59 10° SE 17:15:01 15° E 17:18:03 10° ENE
COSMOS 2428 2.7 17:09:49 10° NNW 17:15:36 84° ENE 17:21:21 10° SSE
Cosmos 1626 Rocket 3.9 17:11:50 10° SSE 17:15:57 45° E 17:20:06 10° NNE
ATLAS CENTAUR R/B 3.4 17:14:35 10° N 17:16:28 13° NNE 17:18:19 10° NE
Timation 2 Rocket 4.1 17:13:13 10° S 17:19:07 56° ESE 17:25:18 10° NE
Envisat 3.0 17:16:37 10° SSE 17:21:40 68° ENE 17:26:44 10° N
Starlink T 2.8 17:20:35 10° SW 17:23:32 65° SSE 17:25:55 14° ENE
Starlink N 2.8 17:21:49 10° SW 17:24:45 66° SSE 17:27:07 15° ENE
Cosmos 1269 Rocket 4.4 17:20:16 10° NNW 17:25:19 43° ENE 17:30:20 10° SE
Starlink Q 2.8 17:23:22 10° SW 17:26:19 68° SSE 17:28:36 15° ENE
Starlink P 2.8 17:24:41 10° SW 17:27:39 70° SSE 17:29:54 16° ENE
Cosmos 1048 Rocket 4.0 17:22:33 10° NNW 17:27:44 90° ENE 17:32:50 10° SSE
Starlink U 2.8 17:26:02 10° SW 17:28:59 72° SSE 17:31:11 16° ENE
Alouette 2 Rocket 4.3 17:24:38 10° NNW 17:29:13 86° WSW 17:36:12 10° S
Starlink B 2.7 17:27:23 10° WSW 17:30:21 73° SSE 17:32:30 17° ENE
CZ-4 R/B 1.9 17:26:42 10° SE 17:30:24 36° ENE 17:34:12 10° N
Cosmos 372 Rocket 4.0 17:28:48 10° SSW 17:33:55 84° WNW 17:39:08 10° NNE
Cosmos 1607 3.9 17:29:09 10° SSW 17:35:15 76° SE 17:41:26 10° NE
Starlink D 2.7 17:32:55 10° WSW 17:35:55 81° SSE 17:37:53 19° ENE
ADEOS Rocket 4.4 17:31:47 10° NE 17:36:30 20° E 17:41:29 10° SE
SJ 16-02 3.5 17:33:34 10° WSW 17:37:04 22° NW 17:40:35 10° N
Starlink S 2.7 17:34:21 10° WSW 17:37:21 82° SSE 17:39:16 20° ENE
Starlink C 2.7 17:35:43 10° WSW 17:38:44 84° SSE 17:40:36 21° ENE
CZ-4B R/B 4.3 17:38:45 10° NW 17:39:48 11° WNW 17:40:51 10° W
Starlink E 2.7 17:37:10 10° WSW 17:40:11 86° SSE 17:42:00 22° ENE
Starlink J 2.7 17:38:36 10° WSW 17:41:37 88° SSE 17:43:23 22° ENE
Starlink V 2.7 17:40:01 10° WSW 17:43:02 90° SE 17:44:45 23° ENE
Starlink H 2.7 17:41:29 10° WSW 17:44:29 88° NNW 17:46:09 24° ENE
Starlink F 2.7 17:42:56 10° WSW 17:45:57 87° NNW 17:47:33 25° ENE
Starlink G 2.7 17:44:23 10° WSW 17:47:24 85° NNW 17:48:57 26° ENE
Starlink L 2.7 17:45:50 10° WSW 17:48:50 83° NNW 17:50:21 27° ENE
Meteor 2-10 Rocket 4.1 17:44:15 10° N 17:49:11 34° ENE 17:53:53 10° SE
SKYMED 2 3.7 17:45:40 10° NNE 17:49:57 54° E 17:54:12 10° S
Starlink A 2.7 17:47:18 10° WSW 17:50:19 81° NNW 17:51:46 28° ENE
CSL-04 Debris 4.3 17:46:16 10° SE 17:51:28 52° ENE 17:56:42 10° N
ERBS 3.9 17:49:06 10° S 17:51:35 20° SE 17:52:11 19° ESE
Starlink R 2.7 17:48:46 10° WSW 17:51:47 80° NNW 17:53:11 29° ENE
Starlink K 2.7 17:50:12 10° WSW 17:53:14 78° NNW 17:54:34 30° ENE
Starlink M 2.8 17:51:36 10° WSW 17:54:38 77° NNW 17:55:55 31° ENE
USA 267 3.7 17:54:02 16° NE 17:59:16 56° NNW 18:05:36 10° W
CZ-2D R/B 3.6 17:56:45 10° SE 18:00:21 41° ENE 18:04:00 10° N
Cosmos 1812 Rocket 3.8 17:57:43 10° NNW 18:02:12 73° W 18:06:39 10° S
Cosmos 2218 Rocket 4.5 17:56:31 10° SSE 18:02:15 38° E 18:08:03 10° NNE
ATLAS CENTAUR R/B 4.0 17:56:50 10° WSW 18:02:31 69° NNW 18:15:08 17° ENE
USA 116 3.9 18:02:58 33° E 18:02:59 33° E 18:05:51 10° SSE
Cosmos 494 Rocket 4.1 17:58:35 10° NNW 18:03:44 80° WSW 18:08:50 10° SSE
Cosmos 2237 Rocket 2.1 17:58:10 10° NNW 18:03:51 80° ENE 18:09:28 10° SSE
Cosmos 2333 Rocket 3.6 17:58:55 10° NW 18:04:15 41° WSW 18:09:31 10° S
Ariane Rocket 3.6 18:00:45 10° SE 18:05:11 32° ENE 18:09:40 10° N
Cosmos 1300 3.8 18:01:41 10° NNW 18:05:22 46° W 18:09:02 10° SSW
Cosmos 2154 Rocket 4.2 18:04:20 10° SSW 18:10:37 75° W 18:16:54 10° N
NOAA 15 4.5 18:05:58 10° SSE 18:11:13 81° ENE 18:16:32 10° NNW
YAOGAN 1 2.4 18:07:16 10° SSE 18:11:35 76° ENE 18:15:56 10° N
H-2A R/B 3.4 18:15:09 20° NE 18:15:09 20° NE 18:17:40 10° N
Cosmos 1340 Rocket 3.7 18:11:05 10° NNW 18:14:55 51° W 18:18:46 10° S
Meteor 1-21 Rocket 4.1 18:10:30 10° S 18:16:01 66° E 18:21:41 10° NNE
Starlink AR 3.0 18:15:39 10° W 18:17:59 46° NNW 18:17:59 46° NNW
Cosmos-2242 2.9 18:14:16 10° N 18:18:37 68° ENE 18:22:53 10° SSE
CSL-04 Rocket 3.6 18:14:27 10° SSE 18:19:57 84° ENE 18:25:32 10° NNW
Cosmos 1242 Rocket 4.3 18:17:12 10° SW 18:20:21 31° WNW 18:23:34 10° N
Cosmos 1455 2.2 18:17:45 10° N 18:21:32 54° ENE 18:25:16 10° SSE
NOSS 2-1 (C) 4.3 18:16:31 10° NW 18:21:40 79° NE 18:28:54 10° SE
Cosmos 2251 Rocket 3.9 18:17:49 10° NNW 18:22:49 40° ENE 18:24:10 34° E
Cosmos 1626 3.8 18:20:33 10° SW 18:23:57 34° WNW 18:27:24 10° N
SL-16 R/B 2.4 18:19:03 10° NNW 18:24:35 49° NE 18:27:14 28° ESE
NOSS 2-1 (D) 4.3 18:20:18 10° NW 18:25:29 83° NE 18:32:47 10° SE
YAOGAN 6 4.4 18:22:05 10° SSW 18:25:29 34° W 18:28:53 10° NNW
ATLAS 5 CENTAUR R/B 3.5 18:24:10 10° W 18:27:53 25° NNW 18:30:44 15° NNE
Cosmos 1959 Rocket 4.5 18:22:59 10° S 18:28:59 57° E 18:34:58 10° NNE
USA 32 4.1 18:24:46 10° S 18:30:00 79° W 18:35:16 10° N
DMSP B5D1-3 4.5 18:26:16 17° NNE 18:30:05 57° E 18:35:05 10° S
Cosmos 2219 3.1 18:25:07 10° SSW 18:30:44 83° ESE 18:34:24 23° NNE
CZ-2C R/B 4.5 18:33:09 23° NNE 18:33:09 23° NNE 18:35:59 10° N
Cosmos 2082 4.1 18:29:27 10° S 18:34:34 37° ESE 18:34:40 37° ESE
Cosmos 1939 Rocket 2.9 18:33:57 10° S 18:37:50 77° WSW 18:41:49 10° NNW
COSMO-SKYMED 1 3.4 18:33:49 10° N 18:38:03 51° WNW 18:42:14 10° SW
Starlink AQ 3.9 18:35:50 10° W 18:38:09 38° NW 18:38:09 38° NW
Cosmos 2366 rocket 3.9 18:32:57 10° S 18:39:03 65° E 18:45:16 10° NNE
CZ-4C R/B 4.0 18:33:33 10° NW 18:40:26 46° WSW 18:48:08 10° S
Starlink AS 4.1 18:37:56 10° W 18:40:06 36° NW 18:40:06 36° NW
Starlink BA 4.1 18:38:12 10° W 18:40:22 35° NW 18:40:22 35° NW
Starlink AU 4.1 18:38:25 10° W 18:40:34 35° NW 18:40:34 35° NW
Starlink AT 4.1 18:38:39 10° W 18:40:47 35° NW 18:40:47 35° NW
Starlink BB 4.1 18:38:52 10° W 18:41:00 35° NW 18:41:00 35° NW
Starlink BC 4.1 18:39:04 10° W 18:41:11 35° NW 18:41:11 35° NW
Starlink BK 4.2 18:39:21 10° W 18:41:27 34° NW 18:41:27 34° NW
Starlink AY 4.2 18:39:33 10° W 18:41:39 34° NW 18:41:39 34° NW
Cosmos 1953 Rocket 3.4 18:37:58 10° S 18:42:26 76° E 18:44:04 39° NNE
Starlink AW 4.2 18:39:46 10° W 18:41:52 34° NW 18:41:52 34° NW
Starlink BJ 4.2 18:40:01 10° W 18:42:06 34° NW 18:42:06 34° NW
Starlink AV 4.2 18:40:13 10° W 18:42:17 34° NW 18:42:17 34° NW
Starlink BD 4.2 18:40:27 10° W 18:42:31 33° NW 18:42:31 33° NW
Starlink BE 4.2 18:40:40 10° W 18:42:45 34° NW 18:42:45 34° NW
Starlink BM 4.3 18:40:55 10° W 18:42:57 33° NW 18:42:57 33° NW
Starlink AX 4.3 18:41:08 10° W 18:43:09 33° NW 18:43:09 33° NW
Starlink BH 4.3 18:41:22 10° W 18:43:23 32° NW 18:43:23 32° NW
Starlink AZ 4.3 18:41:35 10° W 18:43:35 32° NW 18:43:35 32° NW
Starlink BG 4.3 18:41:48 10° W 18:43:48 32° NW 18:43:48 32° NW
Starlink BF 4.3 18:42:02 10° W 18:44:01 32° NW 18:44:01 32° NW
BREEZE-M DEB (TANK) 4.1 18:42:49 10° SW 18:43:51 23° SW 18:43:51 23° SW
Starlink BL 4.3 18:42:14 10° W 18:44:16 32° NW 18:44:16 32° NW
Starlink AH 4.4 18:42:30 10° W 18:44:28 31° WNW 18:44:28 31° WNW
Starlink AC 4.4 18:42:45 10° W 18:44:41 31° WNW 18:44:41 31° WNW
Starlink X 4.4 18:42:58 10° W 18:44:54 31° WNW 18:44:54 31° WNW
Starlink AE 4.4 18:43:07 10° W 18:45:09 32° NW 18:45:09 32° NW
Cosmos 2297 Rocket 2.1 18:40:25 10° SSW 18:46:04 78° ESE 18:48:25 37° NE
Starlink Z 4.4 18:43:24 10° W 18:45:19 31° WNW 18:45:19 31° WNW
Starlink AK 4.4 18:43:37 10° W 18:45:33 31° WNW 18:45:33 31° WNW
Starlink AL 4.4 18:43:53 10° W 18:45:47 30° WNW 18:45:47 30° WNW
Starlink AD 4.5 18:44:07 10° W 18:46:00 30° WNW 18:46:00 30° WNW
Starlink Y 4.5 18:44:32 10° W 18:46:25 30° WNW 18:46:25 30° WNW
Starlink AG 4.5 18:44:46 10° W 18:46:39 30° WNW 18:46:39 30° WNW
Cosmos 1758 Rocket 4.0 18:43:29 10° SSW 18:47:44 59° WNW 18:51:33 13° N
Starlink W 4.5 18:44:58 10° W 18:46:52 30° WNW 18:46:52 30° WNW
Cosmos 1932 4.4 18:41:32 10° SSW 18:47:50 67° ESE 18:50:04 42° ENE
SJ-11-01 4.4 18:56:12 56° NNE 18:56:12 56° NNE 19:00:09 10° N
ATLAS CENTAUR R/B 2.9 18:52:42 10° NNW 18:54:50 25° N 18:54:50 25° N
Cosmos 2227 Rocket 2.1 18:52:32 10° SSW 18:58:12 86° ESE 18:59:59 46° NNE
ISS -1.1 18:59:04 10° SSW 18:59:48 15° SSW 18:59:48 15° SSW
Cosmos 1727 Rocket 3.8 18:56:02 10° N 19:02:16 83° E 19:08:26 10° S
BREEZE-M DEB (TANK) 4.0 18:45:53 10° W 19:03:47 85° N 19:05:06 57° E
CZ-4 R/B 3.8 19:02:16 10° SSW 19:05:32 23° W 19:08:53 10° NW
ARGOS 4.2 19:18:09 34° N 19:18:09 34° N 19:21:11 10° N
Cosmos 44 4.4 19:14:13 10° SSW 19:16:42 31° SSW 19:16:42 31° SSW
ADEOS Rocket 3.2 19:16:11 10° NNE 19:22:37 85° WNW 19:29:45 10° SSW
USA 267 3.8 19:41:23 43° N 19:41:40 43° N 19:47:45 10° WNW
Ariane Rocket 4.2 19:40:06 14° SSW 19:44:02 40° W 19:48:50 10° NNW
H-2A R/B 3.8 19:55:45 24° NNW 19:55:45 24° NNW 19:57:49 10° NNW
SL-16 R/B 3.7 20:03:33 10° NW 20:08:29 31° WSW 20:09:13 30° WSW
ATLAS 5 CENTAUR R/B 4.5 20:11:17 10° NW 20:12:17 13° NNW 20:12:17 13° NNW
ATLAS 5 CENTAUR R/B 3.9 20:19:45 10° NW 20:55:42 - SE 20:24:37 79° W
Cosmos 2297 Rocket 4.2 20:26:13 10° W 20:30:16 24° NW 20:30:16 24° NW
Cosmos 2227 Rocket 4.4 20:38:39 10° W 20:41:52 21° WNW 20:41:52 21° WNW
